Tracking 32579 objects as of 16-Dec-2025
HD Live streaming from Space Station
objects crossing your sky now

EUTELSAT 1-F2 (ECS 2)

Track EUTELSAT 1-F2 (ECS 2) now!
EUTELSAT 1-F2 (ECS 2) is classified as:


NORAD ID: 15158
Int'l Code: 1984-081A
Perigee: 36,159.8 km
Apogee: 36,263.6 km
Inclination: 12.7 °
Period: 1,457.5 minutes
Semi major axis: 42582 km
RCS: 5.0119 m2 (large)
Launch date: August 4, 1984
Source: European Telecommunications Satellite Organization (EUTE)
Launch site: FRENCH GUIANA (FRGUI)
Your satellite tracking list
Your tracking list is empty




NASA's NSSDC Master Catalog

Two Line Element Set (TLE):
1 15158U 84081A   25350.26877943 -.00000216  00000-0  00000-0 0  9992
2 15158  12.7032 334.1482 0012193 239.5651 316.7224  0.98799097115458
Source of the keplerian elements: AFSPC